User: anonymous   Login
Location: Dąbrówka
(52.2799°N, 15.8070°E)
Time: 01:13:07
(UTC+02:00)
Language:

BUGSAT 1 - Orbit

View from above orbital plane
View from above orbital plane
View from above satellite
View from above satellite

Ground track
Ground track

The orbit data is extracted from the following two-line orbital elements,

1 40014U 14033E   19168.77240754 -.00000256  00000-0 -17391-4 0  9991
2 40014  98.0156 116.2933 0033168  64.2899 296.1724 14.95269812272362
Epoch (UTC): 17 June 2019 18:32:16
Eccentricity: 0.0033168
inclination: 98.0156°
perigee height: 558 km
apogee height: 604 km
right ascension of ascending node: 116.2933°
argument of perigee: 64.2899°
revolutions per day: 14.95269812
mean anomaly at epoch: 296.1724°
orbit number at epoch: 27236

The dashed part of the orbit path shows where the satellite is in the earth's shadow,  

DLR